Location: ??????
(54.7303°N, 38.9592°E)
Time: 12:24:29
(UTC+00:00)

Daily predictions for brighter satellites

Satellite Brightness Start Highest point End
(mag) Time Altitude Azimuth Time Altitude Azimuth Time Altitude Azimuth
Cosmos 1464 Rocket 4.3 13:30:35 10° SSW 13:36:43 70° WNW 13:42:51 10° N
Cosmos 2369 Rocket 2.9 13:33:50 10° WSW 13:39:20 50° NW 13:44:54 10° NNE
IRS-1D 4.2 13:35:13 10° S 13:40:04 57° WSW 13:44:57 10° NNW
Cosmos 773 Rocket 4.0 13:36:16 10° NNW 13:41:30 78° ENE 13:46:45 10° SSE
Cosmos 2279 Rocket 4.4 13:37:48 10° SSE 13:43:37 44° E 13:49:29 10° NNE
CZ-2D R/B 4.3 13:42:40 10° ESE 13:44:47 17° ENE 13:46:55 10° NNE
Cosmos 1092 Rocket 4.1 13:39:25 10° NNW 13:45:37 84° W 13:51:45 10° S
Iridium 45 4.2 13:43:47 10° S 13:46:58 89° E 13:50:16 10° N
YAOGAN 1 4.3 13:47:24 10° ENE 13:49:14 13° NE 13:51:04 10° NNE
NOSS 2-2 (D) 3.8 13:47:20 10° SSW 13:50:13 30° SE 13:52:56 10° ENE
Cosmos 1867 3.6 13:45:24 10° NW 13:50:53 73° NE 13:56:20 10° SE
Cosmos 2278 Rocket 4.0 13:47:13 10° WNW 13:51:08 19° NNW 13:55:04 10° NNE
Cosmos 1697 Rocket 4.1 13:48:05 10° SE 13:51:49 19° E 13:55:34 10° ENE
Intercosmos 24 3.7 13:48:52 10° N 13:52:52 66° ENE 13:56:24 10° SSE
Cosmos 2151 3.4 13:49:00 10° N 13:52:56 39° ENE 13:56:51 10° SE
Cosmos 1607 4.1 13:47:10 10° NW 13:53:25 84° SW 13:59:43 10° SE
Cosmos 1743 2.6 13:52:53 10° N 13:56:02 43° ENE 13:59:08 10° SSE
MOS 1 Rocket 4.1 13:56:56 10° ESE 14:01:24 33° ENE 14:06:04 10° N
Cosmos 2084 3.7 13:57:19 10° WSW 14:01:28 61° NNW 14:05:23 11° NE
NOSS 3-2 (A) 3.4 13:56:45 10° SSW 14:01:47 58° SE 14:07:44 11° NE
Cosmos 1900 4.3 13:57:26 10° NW 14:02:33 82° NE 14:07:33 10° SE
NOSS 3-2 (C) 4.2 13:59:18 10° S 14:03:42 29° ESE 14:08:26 11° ENE
IGS 5A 3.3 13:59:54 10° SSE 14:03:49 69° ENE 14:07:49 10° N
SL-08 ROCKET BODY 4.4 13:59:59 10° N 14:05:56 76° ENE 14:11:58 10° SSE
ARIANE 5 R/B 2.8 14:01:29 10° SE 14:06:19 46° ENE 14:11:14 10° N
Cosmos 1356 Rocket 3.5 14:04:06 10° SSW 14:08:10 80° WNW 14:12:17 10° NNE
Cosmos 1825 Rocket 4.2 14:06:10 10° N 14:10:08 33° ENE 14:14:05 10° SE
Cosmos 1656 3.9 14:04:40 10° SSW 14:10:11 57° ESE 14:15:46 10° NE
NOSS 2-2 (E) 3.5 14:07:13 10° SSW 14:10:13 36° SE 14:12:22 15° ENE
SAR-Lupe-4 4.1 14:08:02 10° SE 14:11:18 35° ENE 14:14:36 10° N
Cosmos 2084 Rocket 3.8 14:07:10 10° NW 14:11:22 67° SW 14:15:32 10° SE
Cosmos 2208 Rocket 4.5 14:07:05 10° NNW 14:12:13 66° WSW 14:17:21 10° SSE
Cosmos 1758 Rocket 3.5 14:09:11 10° NNW 14:13:33 89° WSW 14:17:50 10° S
Resurs 01 Rocket 3.6 14:14:57 10° NE 14:14:57 10° NE 14:15:18 10° NNE
CZ-4C R/B 3.1 14:07:41 10° NW 14:14:17 80° SW 14:22:39 10° SE
Meteor 1-20 Rocket 4.1 14:09:40 10° N 14:15:07 64° ENE 14:20:33 10° SSE
Cosmos 2266 Rocket 4.0 14:09:27 10° N 14:15:35 60° ENE 14:21:34 10° SSE
Cosmos 1782 2.6 14:12:45 10° S 14:16:17 58° E 14:19:51 10° NNE
UNK 4.3 14:13:12 10° NNE 14:17:30 37° E 14:21:43 10° SSE
Cosmos 2098 Rocket 3.3 14:14:34 10° S 14:18:50 57° E 14:23:49 10° NNE
Cosmos 2082 4.4 14:15:30 10° NNW 14:20:41 34° NE 14:25:52 10° ESE
SAR-Lupe-1 4.5 14:18:38 10° SE 14:22:02 40° ENE 14:25:28 10° N
SPOT 1/Viking Rocket 4.1 14:18:16 10° SE 14:22:56 34° ENE 14:27:36 10° N
CBERS-1 4.3 14:20:33 10° S 14:25:39 72° WSW 14:30:47 10° NNW
CZ-2D R/B 4.4 14:22:46 10° ESE 14:26:11 25° ENE 14:29:34 10° N
Cosmos 2297 Rocket 2.8 14:20:55 10° NW 14:26:31 61° WSW 14:32:05 10° SSE
Cosmos 783 Rocket 4.5 14:21:30 10° NNW 14:26:51 85° ENE 14:32:10 10° SSE
SMAP 3.0 14:24:09 10° SSE 14:28:48 78° ENE 14:33:30 10° NNW
Cosmos 1076 Rocket 4.1 14:25:04 10° N 14:29:00 33° ENE 14:32:54 10° SE
IRS-P3 4.2 14:23:56 10° SE 14:29:04 51° ENE 14:34:12 10° N
Cosmos 405 Rocket 4.2 14:26:20 10° NNW 14:29:18 33° W 14:32:14 10° SSW
NOSS 2-2 (C) 2.8 14:28:55 10° WSW 14:31:58 64° NW 14:33:48 21° NE
Landsat 7 3.7 14:29:02 10° SSE 14:33:39 69° ENE 14:38:19 10° N
Cosmos 1538 Rocket 4.2 14:31:40 10° NNW 14:36:47 49° NE 14:41:57 10° SE
SJ-6F 4.5 14:35:47 10° SE 14:39:39 51° ENE 14:43:34 10° N
Meteor 1-28 Rocket 2.8 14:36:40 10° NNE 14:40:03 89° SE 14:43:23 10° SSW
[s.n.66845] 2.6 14:39:40 10° NNW 14:41:46 27° NNE 14:41:46 27° NNE
[s.n.66847] 2.6 14:40:07 10° NNW 14:42:12 27° NNE 14:42:12 27° NNE
[s.n.66846] 2.6 14:40:32 10° NNW 14:42:37 27° NNE 14:42:37 27° NNE
[s.n.66843] 2.6 14:41:04 10° NNW 14:43:09 28° NNE 14:43:09 28° NNE
CENTAUR R/B 3.0 14:37:45 10° WSW 14:43:50 62° NNW 14:49:50 17° NE
[s.n.66844] 2.6 14:41:31 10° NNW 14:43:35 28° NNE 14:43:35 28° NNE
[s.n.66842] 2.6 14:42:02 10° NNW 14:44:06 28° NNE 14:44:06 28° NNE
[s.n.66841] 2.6 14:42:29 10° NNW 14:44:34 28° NNE 14:44:34 28° NNE
[s.n.66840] 2.6 14:42:59 10° NNW 14:45:03 28° NNE 14:45:03 28° NNE
[s.n.66838] 2.6 14:43:28 10° NNW 14:45:32 29° NNE 14:45:32 29° NNE
[s.n.66839] 2.6 14:43:58 10° NNW 14:46:01 29° NNE 14:46:01 29° NNE
Cosmos 2219 3.4 14:40:51 10° NNW 14:46:27 50° NE 14:52:02 10° ESE
SL-16 R/B 2.6 14:40:25 10° NNE 14:46:41 82° WNW 14:52:53 10° SSW
[s.n.66837] 2.6 14:44:25 10° NNW 14:46:28 29° NNE 14:46:28 29° NNE
[s.n.66836] 2.5 14:44:54 10° NNW 14:46:57 29° NNE 14:46:57 29° NNE
Thor Agena Rocket 4.0 14:42:44 10° S 14:47:54 64° WSW 14:53:02 10° NNW
[s.n.66835] 2.5 14:45:25 10° NNW 14:47:27 29° NNE 14:47:27 29° NNE
Cosmos 1606 Rocket 3.8 14:43:55 10° SSE 14:48:08 46° E 14:51:39 14° NNE
[s.n.66834] 2.5 14:45:54 10° NNW 14:47:56 30° NNE 14:47:56 30° NNE
[s.n.66833] 2.5 14:46:20 10° NNW 14:48:22 30° NNE 14:48:22 30° NNE
Cosmos 1315 Rocket 4.5 14:45:47 10° SW 14:49:12 30° WNW 14:52:38 10° N
[s.n.66832] 2.5 14:46:52 10° NNW 14:48:54 30° NNE 14:48:54 30° NNE
Cosmos 1503 Rocket 4.0 14:44:19 10° S 14:49:27 61° ESE 14:53:23 17° NE
[s.n.66831] 2.5 14:47:18 10° NNW 14:49:19 30° NNE 14:49:19 30° NNE
[s.n.66830] 2.5 14:47:44 10° NNW 14:49:44 30° NNE 14:49:44 30° NNE
[s.n.66828] 2.5 14:48:08 10° NNW 14:50:09 30° NNE 14:50:09 30° NNE
USA 281 4.5 14:49:00 18° NE 14:51:11 21° NNE 14:55:52 10° NNW
[s.n.66829] 2.5 14:48:40 10° NNW 14:50:41 31° NNE 14:50:41 31° NNE
GEOS 3 Rocket 4.0 14:47:48 21° ENE 14:51:17 52° SE 14:56:32 10° SSW
[s.n.66827] 2.5 14:49:12 10° NNW 14:51:12 31° NNE 14:51:12 31° NNE
[s.n.66826] 2.5 14:49:42 10° NNW 14:51:42 31° NNE 14:51:42 31° NNE
ATLAS CENTAUR R/B 4.4 14:51:32 10° W 14:52:41 11° WSW 14:53:49 10° SW
[s.n.66825] 2.5 14:50:08 10° NNW 14:52:08 31° NNE 14:52:08 31° NNE
[s.n.66824] 2.5 14:50:39 10° NNW 14:52:38 31° NNE 14:52:38 31° NNE
[s.n.66823] 2.5 14:51:10 10° NNW 14:53:09 32° NNE 14:53:09 32° NNE
Cosmos 1844 Rocket 3.6 14:48:58 10° NNW 14:53:51 28° NE 14:55:40 24° ENE
[s.n.66822] 2.5 14:51:39 10° NNW 14:53:37 32° NNE 14:53:37 32° NNE
[s.n.66821] 2.5 14:52:07 10° NNW 14:54:05 32° NNE 14:54:05 32° NNE
Cosmos 1980 Rocket 3.2 14:50:26 10° SSE 14:54:58 25° ESE 14:56:11 23° E
Meteor 1-25 Rocket 4.3 14:49:39 10° NNW 14:55:31 86° WSW 15:01:19 10° S
Meteor 1-5 Rocket 4.0 14:50:35 10° N 14:55:56 69° ENE 15:01:21 10° SSE
Cosmos 1544 Rocket 4.2 14:53:04 10° SSW 14:57:25 58° WNW 15:01:50 10° N
AQUARIUS 4.0 14:53:21 10° SSE 14:57:46 85° ENE 15:02:13 10° NNW
Cosmos 1354 Rocket 4.1 14:53:56 10° S 14:59:03 54° ESE 15:02:16 22° NE
Resurs 1-3 3.9 14:56:25 10° SE 15:00:25 40° ENE 15:04:27 10° N
Cosmos 2263 Rocket 2.1 14:56:02 10° NNW 15:01:44 79° NE 15:07:26 10° SE
Lacrosse 5 rocket 1.1 14:59:16 10° W 15:02:58 62° N 15:04:06 39° NE
USA 238 DEB 4.4 14:59:11 10° S 15:04:23 29° ESE 15:06:19 25° E
USA 238 4.4 14:59:19 10° S 15:04:31 29° ESE 15:06:26 25° E
Cosmos 1777 Rocket 3.9 15:00:30 10° SSW 15:05:46 89° ESE 15:09:43 18° NNE
Spot 4 Rocket 4.1 15:00:52 10° SE 15:05:49 53° ENE 15:10:48 10° N
Lacrosse 4 Rocket 3.1 15:02:50 10° W 15:06:09 24° NNW 15:08:19 16° NNE
USA 215 3.3 15:06:28 25° E 15:10:35 74° N 15:17:08 10° W
Cosmos 1726 Rocket 3.7 15:07:33 10° S 15:12:06 59° E 15:14:56 22° NNE
Okean 1-7 Rocket 4.3 15:08:12 10° NNW 15:12:31 55° W 15:16:46 10° S
Cosmos 44 Rocket 4.0 15:08:49 10° NW 15:13:37 39° NNE 15:14:56 34° ENE
CZ-2D R/B 3.9 15:13:24 10° S 15:16:26 44° W 15:19:29 10° NNW
NOSS 2-3 (E) 4.1 15:13:46 10° S 15:16:49 31° SE 15:16:49 31° SE
NOSS 2-3 (D) 4.2 15:14:30 10° S 15:17:27 30° SE 15:17:27 30° SE
Cosmos 2227 Rocket 2.9 15:12:23 10° NW 15:17:55 56° WSW 15:23:24 10° SSE
Cosmos 1943 Rocket 4.0 15:15:08 10° NNW 15:18:14 15° N 15:19:30 14° NNE
Cosmos 923 Rocket 4.1 15:13:39 10° NNW 15:18:43 49° NE 15:20:52 31° ESE
SKYMED 2 3.8 15:21:36 44° ENE 15:22:10 47° E 15:26:21 10° S
Cosmos 1461 2.6 15:19:36 10° SW 15:23:31 88° SE 15:24:22 54° NE
Cosmos 1933 3.3 15:20:20 10° SSW 15:24:09 76° WNW 15:26:21 24° N
YAOGAN 1 2.4 15:20:06 10° SSE 15:24:18 65° ENE 15:28:33 10° N
Cosmos 2369 Rocket 4.1 15:20:34 10° WNW 15:24:43 20° NNW 15:28:01 13° NNE
Cosmos-2242 4.2 15:21:33 10° SSE 15:23:49 27° SE 15:23:49 27° SE
BREEZE-M DEB (TANK) 4.0 15:23:25 10° WSW 15:26:42 43° S 15:33:52 15° ESE
Cosmos 1655 Rocket 4.0 15:20:28 10° NNW 15:26:46 85° W 15:32:59 10° S
Meteor 2-10 4.0 15:26:40 10° NNW 15:32:02 83° ENE 15:37:34 10° SSE
NOAA 15 4.5 15:28:05 10° SSE 15:33:23 84° ENE 15:38:42 10° NNW
Cosmos 1697 Rocket 2.6 15:29:22 10° SSW 15:34:58 84° ESE 15:37:32 34° NE
Cosmos 990 Rocket 3.8 15:31:53 10° SSW 15:37:01 85° ESE 15:39:11 36° NNE
Cosmos 2278 Rocket 4.0 15:34:06 10° NNW 15:37:31 16° N 15:38:10 16° NNE
Cosmos 1953 Rocket 3.9 15:34:12 10° NNW 15:38:37 67° W 15:43:02 10° S
Aureole 1 Rocket 3.6 15:34:25 10° S 15:38:55 49° ESE 15:39:12 49° E
MOS 1 Rocket 4.4 15:34:23 10° S 15:39:14 51° W 15:44:21 10° NNW
NOSS 2-2 (D) 3.9 15:36:26 10° W 15:39:04 35° NW 15:39:04 35° NW
Cosmos 494 Rocket 4.4 15:39:32 10° NNW 15:44:00 42° NE 15:44:00 42° NE
ARIANE 5 R/B 4.1 15:40:51 10° SSW 15:45:29 35° W 15:50:13 10° NNW
Resurs 01 Rocket 3.4 15:52:22 20° N 15:52:22 20° N 15:53:50 10° N
Cosmos 1680 Rocket 3.4 15:46:04 10° NNW 15:51:16 63° ENE 15:51:29 62° ENE
USA 81 4.1 15:46:41 10° N 15:51:59 78° W 15:57:14 10° S
NOAA 6 3.9 15:47:28 10° SSE 15:52:34 83° ENE 15:57:41 10° NNW
NOSS 3-2 (A) 3.9 15:47:20 10° W 15:52:42 52° NNW 15:55:04 35° NNE
NOSS 3-2 (C) 3.3 15:48:33 10° WSW 15:53:52 77° NW 15:55:51 45° NE
IRAS Rocket 4.2 15:51:39 10° SSE 15:57:08 79° WSW 16:02:39 10° NNW
Meteor 2-2 Rocket 4.1 15:52:41 10° S 15:58:15 66° E 15:58:58 60° ENE
Cosmos 1844 3.9 15:52:51 10° NNW 15:57:58 50° NNE 15:57:58 50° NNE
Gbstr 26 Del rocket 3.9 15:54:52 10° SW 15:57:35 33° SSW 15:57:35 33° SSW
CZ-2D R/B 4.3 15:56:48 10° S 16:00:53 50° W 16:04:56 10° NNW
SPOT 1/Viking Rocket 4.4 15:57:06 10° S 16:02:08 50° W 16:07:13 10° NNW
SL-19 R/B 4.5 15:59:41 10° S 16:05:06 70° WSW 16:10:53 10° NNW
Cosmos 2082 3.9 15:59:32 10° NW 16:05:15 71° WSW 16:08:44 24° SSE
PSLV R/B 3.9 16:06:53 37° SSW 16:08:13 57° WSW 16:12:16 10° NNW
COSMO-SKYMED 1 4.0 16:12:53 26° SSW 16:12:53 26° SSW 16:14:46 10° SSW
Cosmos 2227 4.1 16:08:22 10° NNW 16:13:46 71° NNE 16:13:46 71° NNE
Cosmos 2058 Rocket 3.5 16:09:54 10° SSW 16:13:33 57° SW 16:13:33 57° SW
Meteor 2-11 Rocket 4.3 16:08:44 10° NNW 16:14:56 88° ENE 16:21:07 10° S
Meteor 1-26 Rocket 4.0 16:17:43 10° SSW 16:23:08 83° WNW 16:23:10 83° WNW
Cosmos 1553 Rocket 3.9 16:21:58 10° S 16:28:10 88° WNW 16:30:07 48° N
GEOS 3 Rocket 4.1 16:28:51 54° N 16:29:19 56° NNW 16:34:34 10° WSW
SL-16 R/B 4.5 16:24:42 10° N 16:29:28 24° NW 16:34:14 10° W
Cosmos 2219 4.3 16:25:11 10° NW 16:30:33 42° WSW 16:35:51 10° S
USA 281 3.8 16:35:52 43° NNE 16:35:52 43° NNE 16:40:45 10° NNW
CENTAUR R/B 3.5 16:29:14 10° WNW 16:35:45 44° N 16:36:56 41° NNE
Cosmos 1980 Rocket 2.3 16:32:46 10° SW 16:37:58 71° W 16:37:58 71° W
Cosmos 1844 Rocket 3.0 16:32:45 10° NNW 16:37:20 60° NNW 16:37:20 60° NNW
Lacrosse 5 rocket 3.7 16:36:33 10° WNW 16:37:41 19° WNW 16:37:41 19° WNW
Cosmos 1745 Rocket 3.9 16:34:15 10° NNW 16:40:05 78° NW 16:40:05 78° NW
Cosmos 2263 Rocket 4.3 16:40:37 10° NW 16:45:05 25° WSW 16:49:34 10° SSW
Lacrosse 4 Rocket 4.2 16:43:29 10° NW 16:43:48 11° NNW 16:43:48 11° NNW
USA 215 3.2 16:53:49 82° WSW 16:53:49 82° WSW 17:00:13 10° WNW
USA 238 DEB 3.7 16:48:18 10° SW 16:53:47 71° WSW 16:53:47 71° WSW
USA 238 3.7 16:48:24 10° SW 16:53:53 71° WSW 16:53:53 71° WSW
Cosmos 1943 Rocket 4.3 16:59:30 10° NNW 17:00:59 16° NNW 17:00:59 16° NNW
Cosmos 2369 Rocket 4.5 17:07:36 10° NNW 17:09:46 15° N 17:09:46 15° N
Cosmos 1697 Rocket 4.2 17:14:40 10° W 17:19:16 30° NW 17:19:16 30° NW
Cosmos 2278 Rocket 4.4 17:18:38 10° NNW 17:19:58 16° NNW 17:19:58 16° NNW
CENTAUR R/B 4.3 18:20:26 10° NW 18:24:02 32° NW 18:24:02 32° NW
